| time (UTC) | temp F | wind direction | speed MPH | gust MPH | rain 1hr in | rain 24hr in | rain mn in | humidity % | barometer mb |
| 20260503043052 | 53 | 230 | 0.0 | 0.0 | 0.00 | 0.00 | 0.00 | 99 | 1018.0 |
| 20260503042549 | 53 | 231 | 0.0 | 0.0 | 0.00 | 0.00 | 0.00 | 99 | 1018.0 |
| 20260503042045 | 53 | 231 | 0.0 | 0.0 | 0.00 | 0.00 | 0.00 | 99 | 1018.1 |
| 20260503041542 | 53 | 231 | 0.0 | 0.0 | 0.00 | 0.00 | 0.00 | 99 | 1018.0 |
| 20260503041040 | 53 | 231 | 0.0 | 0.0 | 0.00 | 0.00 | 0.00 | 99 | 1018.0 |
| 20260503040537 | 53 | 230 | 0.0 | 0.0 | 0.00 | 0.00 | 0.00 | 99 | 1017.8 |
| 20260503040034 | 53 | 230 | 0.0 | 0.0 | 0.00 | 0.00 | 0.00 | 99 | 1017.9 |
| 20260503035531 | 53 | 231 | 0.0 | 0.0 | 0.00 | 0.02 | 0.02 | 99 | 1017.9 |
| 20260503035029 | 53 | 231 | 0.0 | 0.0 | 0.00 | 0.02 | 0.02 | 99 | 1017.9 |
| 20260503034526 | 53 | 231 | 0.0 | 0.0 | 0.00 | 0.02 | 0.02 | 99 | 1018.1 |
| 20260503034023 | 53 | 232 | 0.0 | 0.0 | 0.00 | 0.02 | 0.02 | 99 | 1018.1 |
| 20260503033520 | 54 | 231 | 0.0 | 0.0 | 0.00 | 0.02 | 0.02 | 99 | 1018.1 |
| 20260503033018 | 54 | 231 | 0.0 | 0.0 | 0.00 | 0.02 | 0.02 | 99 | 1017.9 |
| 20260503032516 | 54 | 231 | 0.0 | 0.0 | 0.00 | 0.02 | 0.02 | 99 | 1018.2 |
| 20260503032014 | 54 | 242 | 0.0 | 0.0 | 0.00 | 0.02 | 0.02 | 99 | 1017.9 |
| 20260503031511 | 54 | 247 | 0.0 | 0.0 | 0.00 | 0.02 | 0.02 | 99 | 1018.0 |
| 20260503031008 | 54 | 284 | 0.0 | 0.0 | 0.00 | 0.02 | 0.02 | 99 | 1017.9 |
| 20260503030504 | 54 | 266 | 0.0 | 0.0 | 0.00 | 0.02 | 0.02 | 99 | 1017.8 |
| 20260503030001 | 53 | 232 | 0.0 | 0.0 | 0.00 | 0.02 | 0.02 | 99 | 1017.5 |
| 20260503025458 | 53 | 232 | 0.0 | 0.0 | 0.00 | 0.02 | 0.02 | 99 | 1017.5 |
| 20260503024956 | 53 | 231 | 0.0 | 0.0 | 0.00 | 0.02 | 0.02 | 99 | 1017.3 |
| 20260503024451 | 53 | 231 | 0.0 | 0.0 | 0.00 | 0.02 | 0.02 | 99 | 1017.2 |
| 20260503023949 | 53 | 232 | 0.0 | 0.0 | 0.00 | 0.02 | 0.02 | 99 | 1017.2 |
| 20260503023446 | 53 | 232 | 0.0 | 0.0 | 0.00 | 0.02 | 0.02 | 99 | 1017.1 |
| 20260503022943 | 53 | 206 | 0.0 | 0.0 | 0.00 | 0.02 | 0.02 | 99 | 1017.1 |
| 20260503022438 | 53 | 206 | 0.0 | 0.0 | 0.00 | 0.02 | 0.02 | 99 | 1017.0 |
| 20260503021934 | 53 | 204 | 0.0 | 0.0 | 0.00 | 0.02 | 0.02 | 99 | 1016.8 |
| 20260503021430 | 53 | 204 | 0.0 | 0.0 | 0.00 | 0.02 | 0.02 | 99 | 1016.9 |
| 20260503020928 | 53 | 204 | 0.0 | 0.0 | 0.00 | 0.02 | 0.02 | 99 | 1016.5 |
| 20260503020425 | 53 | 204 | 0.0 | 0.0 | 0.00 | 0.02 | 0.02 | 99 | 1016.6 |
| 20260503015922 | 53 | 209 | 0.0 | 0.0 | 0.00 | 0.02 | 0.02 | 99 | 1016.7 |
| 20260503015419 | 53 | 209 | 0.0 | 0.0 | 0.00 | 0.02 | 0.02 | 99 | 1016.7 |
| 20260503014914 | 53 | 209 | 0.0 | 0.0 | 0.00 | 0.02 | 0.02 | 99 | 1016.4 |
| 20260503014412 | 53 | 207 | 0.0 | 0.0 | 0.00 | 0.02 | 0.02 | 99 | 1016.2 |
| 20260503013910 | 53 | 208 | 0.0 | 0.0 | 0.00 | 0.02 | 0.02 | 99 | 1016.3 |
| 20260503013406 | 53 | 208 | 0.0 | 0.0 | 0.00 | 0.02 | 0.02 | 99 | 1016.1 |
| 20260503012903 | 53 | 207 | 0.0 | 0.0 | 0.00 | 0.02 | 0.02 | 99 | 1016.0 |
| 20260503012401 | 53 | 207 | 0.0 | 0.0 | 0.00 | 0.02 | 0.02 | 99 | 1015.8 |
| 20260503011857 | 53 | 207 | 0.0 | 0.0 | 0.00 | 0.02 | 0.02 | 99 | 1015.7 |
| 20260503011355 | 53 | 207 | 0.0 | 0.0 | 0.00 | 0.02 | 0.02 | 99 | 1015.6 |
| 20260503010851 | 53 | 207 | 0.0 | 0.0 | 0.00 | 0.02 | 0.02 | 99 | 1015.6 |
| 20260503010348 | 53 | 207 | 0.0 | 0.0 | 0.00 | 0.02 | 0.02 | 99 | 1015.5 |
| 20260503005845 | 53 | 207 | 0.0 | 0.0 | 0.00 | 0.02 | 0.02 | 99 | 1015.5 |
| 20260503005343 | 53 | 204 | 0.0 | 0.0 | 0.00 | 0.02 | 0.02 | 99 | 1015.3 |
| 20260503004838 | 53 | 206 | 0.0 | 0.0 | 0.00 | 0.02 | 0.02 | 99 | 1015.6 |
| 20260503004336 | 53 | 232 | 0.0 | 0.0 | 0.00 | 0.02 | 0.02 | 99 | 1015.3 |
| 20260503003834 | 53 | 232 | 0.0 | 0.0 | 0.00 | 0.02 | 0.02 | 99 | 1015.0 |
| 20260503003330 | 53 | 232 | 0.0 | 0.0 | 0.00 | 0.02 | 0.02 | 99 | 1015.3 |
| 20260503002827 | 53 | 232 | 0.0 | 0.0 | 0.00 | 0.02 | 0.02 | 99 | 1015.1 |
| 20260503002324 | 53 | 232 | 0.0 | 0.0 | 0.00 | 0.02 | 0.02 | 99 | 1015.2 |
| 20260503001821 | 54 | 232 | 0.0 | 0.0 | 0.00 | 0.02 | 0.02 | 99 | 1014.9 |
| 20260503001317 | 54 | 232 | 0.0 | 0.0 | 0.00 | 0.02 | 0.02 | 99 | 1014.8 |
| 20260503000815 | 54 | 232 | 0.0 | 0.0 | 0.00 | 0.02 | 0.02 | 99 | 1014.7 |
| 20260503000312 | 55 | 232 | 0.0 | 0.0 | 0.00 | 0.02 | 0.02 | 99 | 1014.6 |
| 20260502235809 | 55 | 232 | 0.0 | 0.0 | 0.00 | 0.02 | 0.02 | 99 | 1014.6 |
| 20260502235306 | 55 | 233 | 0.0 | 0.0 | 0.00 | 0.02 | 0.02 | 99 | 1014.4 |
| 20260502234803 | 55 | 233 | 0.0 | 0.0 | 0.00 | 0.02 | 0.02 | 98 | 1014.4 |
| 20260502234300 | 55 | 233 | 0.0 | 0.0 | 0.00 | 0.02 | 0.02 | 98 | 1014.4 |
| 20260502233756 | 56 | 233 | 0.0 | 0.0 | 0.00 | 0.02 | 0.02 | 98 | 1014.4 |
| 20260502233253 | 56 | 233 | 0.0 | 0.0 | 0.00 | 0.02 | 0.02 | 98 | 1014.6 |
| 20260502232749 | 56 | 234 | 0.0 | 0.0 | 0.00 | 0.02 | 0.02 | 98 | 1014.2 |
| 20260502232246 | 57 | 233 | 0.0 | 0.0 | 0.00 | 0.02 | 0.02 | 97 | 1014.3 |
| 20260502231742 | 57 | 233 | 0.0 | 0.0 | 0.00 | 0.02 | 0.02 | 97 | 1014.2 |
| 20260502231240 | 57 | 236 | 0.0 | 0.0 | 0.00 | 0.02 | 0.02 | 97 | 1014.0 |
| 20260502230739 | 58 | 236 | 0.0 | 0.0 | 0.00 | 0.02 | 0.02 | 96 | 1014.0 |
| 20260502230237 | 58 | 236 | 0.0 | 0.0 | 0.00 | 0.02 | 0.02 | 95 | 1014.2 |
| 20260502225733 | 58 | 205 | 0.0 | 0.0 | 0.00 | 0.02 | 0.02 | 93 | 1014.0 |
| 20260502225230 | 58 | 231 | 0.0 | 0.0 | 0.00 | 0.02 | 0.02 | 94 | 1014.1 |
| 20260502224726 | 58 | 244 | 0.0 | 0.0 | 0.00 | 0.02 | 0.02 | 94 | 1014.2 |
| 20260502224223 | 58 | 246 | 0.0 | 0.0 | 0.00 | 0.02 | 0.02 | 95 | 1014.2 |
| 20260502223720 | 58 | 264 | 0.0 | 0.0 | 0.00 | 0.02 | 0.02 | 92 | 1014.1 |
| 20260502223218 | 58 | 242 | 0.0 | 0.0 | 0.00 | 0.02 | 0.02 | 93 | 1013.8 |
| 20260502222716 | 58 | 189 | 0.0 | 0.0 | 0.00 | 0.02 | 0.02 | 93 | 1014.3 |
| 20260502222212 | 58 | 253 | 0.0 | 0.0 | 0.00 | 0.02 | 0.02 | 94 | 1014.1 |
| 20260502221708 | 59 | 235 | 0.0 | 0.0 | 0.00 | 0.02 | 0.02 | 94 | 1013.9 |
| 20260502221205 | 58 | 213 | 0.0 | 0.0 | 0.00 | 0.02 | 0.02 | 93 | 1013.7 |
| 20260502220701 | 58 | 71 | 0.0 | 0.0 | 0.00 | 0.02 | 0.02 | 91 | 1013.9 |
| 20260502220157 | 59 | 246 | 0.0 | 0.0 | 0.00 | 0.02 | 0.02 | 92 | 1013.7 |
| 20260502215654 | 58 | 213 | 0.0 | 0.0 | 0.00 | 0.02 | 0.02 | 92 | 1013.7 |
| 20260502215151 | 58 | 184 | 0.0 | 0.0 | 0.00 | 0.02 | 0.02 | 91 | 1013.5 |
| 20260502214649 | 59 | 33 | 0.0 | 0.0 | 0.00 | 0.02 | 0.02 | 91 | 1013.5 |
| 20260502214146 | 59 | 231 | 0.0 | 0.0 | 0.00 | 0.02 | 0.02 | 94 | 1013.6 |
| 20260502213643 | 58 | 243 | 0.0 | 0.0 | 0.00 | 0.02 | 0.02 | 93 | 1013.6 |
| 20260502213140 | 59 | 296 | 0.0 | 0.0 | 0.00 | 0.02 | 0.02 | 93 | 1013.7 |
| 20260502212639 | 58 | 267 | 0.0 | 0.0 | 0.00 | 0.02 | 0.02 | 96 | 1013.6 |
| 20260502212137 | 57 | 214 | 0.0 | 0.0 | 0.00 | 0.02 | 0.02 | 97 | 1013.8 |
| 20260502211632 | 57 | 214 | 0.0 | 0.0 | 0.00 | 0.02 | 0.02 | 98 | 1013.8 |
| 20260502211129 | 57 | 160 | 0.0 | 0.0 | 0.00 | 0.02 | 0.02 | 98 | 1013.8 |
| 20260502210627 | 57 | 241 | 0.0 | 0.0 | 0.00 | 0.02 | 0.02 | 98 | 1013.7 |
| 20260502210124 | 56 | 266 | 0.0 | 0.0 | 0.00 | 0.02 | 0.02 | 98 | 1013.5 |
| 20260502205620 | 56 | 223 | 0.0 | 0.0 | 0.00 | 0.02 | 0.02 | 99 | 1013.6 |
| 20260502205117 | 56 | 226 | 0.0 | 0.0 | 0.00 | 0.02 | 0.02 | 99 | 1013.4 |
| 20260502204614 | 56 | 195 | 0.0 | 0.0 | 0.00 | 0.02 | 0.02 | 99 | 1013.4 |
| 20260502204112 | 55 | 110 | 0.0 | 0.0 | 0.00 | 0.02 | 0.02 | 99 | 1013.3 |
| 20260502203609 | 56 | 12 | 0.0 | 0.0 | 0.00 | 0.02 | 0.02 | 99 | 1013.4 |
| 20260502203106 | 55 | 167 | 0.0 | 0.0 | 0.00 | 0.02 | 0.02 | 99 | 1013.3 |
| 20260502202601 | 56 | 250 | 0.0 | 0.0 | 0.00 | 0.02 | 0.02 | 99 | 1013.4 |
| 20260502202100 | 56 | 229 | 0.0 | 0.0 | 0.00 | 0.02 | 0.02 | 99 | 1013.7 |
| 20260502201555 | 56 | 268 | 0.0 | 0.0 | 0.00 | 0.02 | 0.02 | 98 | 1013.4 |
| 20260502201052 | 56 | 210 | 0.0 | 0.0 | 0.00 | 0.02 | 0.02 | 98 | 1013.5 |
| 20260502200548 | 57 | 150 | 0.0 | 0.0 | 0.00 | 0.02 | 0.02 | 97 | 1013.6 |
| 20260502200046 | 59 | 224 | 0.0 | 0.0 | 0.00 | 0.02 | 0.02 | 98 | 1013.5 |
| 20260502195544 | 59 | 216 | 0.0 | 0.0 | 0.00 | 0.02 | 0.02 | 98 | 1013.4 |
| 20260502195039 | 59 | 213 | 0.0 | 0.0 | 0.00 | 0.02 | 0.02 | 98 | 1013.3 |
| 20260502194536 | 59 | 220 | 0.0 | 0.0 | 0.00 | 0.02 | 0.02 | 98 | 1013.3 |
| 20260502194032 | 60 | 213 | 0.0 | 0.0 | 0.00 | 0.02 | 0.02 | 97 | 1013.4 |
| 20260502193530 | 59 | 244 | 0.0 | 0.0 | 0.00 | 0.02 | 0.02 | 98 | 1013.4 |
| 20260502193026 | 59 | 204 | 0.0 | 0.0 | 0.00 | 0.02 | 0.02 | 97 | 1013.2 |
| 20260502192522 | 59 | 209 | 0.0 | 0.0 | 0.00 | 0.02 | 0.02 | 97 | 1013.2 |
| 20260502192020 | 59 | 201 | 0.0 | 0.0 | 0.00 | 0.02 | 0.02 | 96 | 1013.3 |
| 20260502191516 | 60 | 203 | 0.0 | 0.0 | 0.00 | 0.02 | 0.02 | 96 | 1013.5 |
| 20260502191014 | 60 | 220 | 0.0 | 0.0 | 0.00 | 0.02 | 0.02 | 96 | 1013.3 |
| 20260502190512 | 61 | 220 | 0.0 | 0.0 | 0.00 | 0.02 | 0.02 | 95 | 1013.3 |
| 20260502190008 | 61 | 79 | 0.0 | 0.0 | 0.00 | 0.02 | 0.02 | 94 | 1013.4 |
| 20260502185503 | 61 | 262 | 0.0 | 0.0 | 0.00 | 0.02 | 0.02 | 94 | 1013.1 |
| 20260502185000 | 61 | 210 | 0.0 | 0.0 | 0.00 | 0.02 | 0.02 | 96 | 1013.1 |
| 20260502184455 | 62 | 231 | 0.0 | 0.0 | 0.00 | 0.02 | 0.02 | 98 | 1013.4 |
| 20260502183953 | 61 | 237 | 0.0 | 0.0 | 0.00 | 0.02 | 0.02 | 98 | 1013.3 |
| 20260502183449 | 61 | 229 | 0.0 | 0.0 | 0.00 | 0.02 | 0.02 | 98 | 1013.3 |
| 20260502182944 | 61 | 243 | 0.0 | 0.0 | 0.00 | 0.02 | 0.02 | 98 | 1013.4 |
| 20260502182440 | 62 | 244 | 0.0 | 0.0 | 0.00 | 0.02 | 0.02 | 98 | 1013.4 |
| 20260502181936 | 62 | 241 | 0.0 | 0.0 | 0.00 | 0.02 | 0.02 | 99 | 1013.5 |
| 20260502181434 | 61 | 231 | 0.0 | 0.0 | 0.00 | 0.02 | 0.02 | 99 | 1013.4 |
| 20260502180933 | 61 | 213 | 0.0 | 0.0 | 0.00 | 0.02 | 0.02 | 99 | 1013.4 |
| 20260502180430 | 61 | 249 | 0.0 | 0.0 | 0.00 | 0.02 | 0.02 | 99 | 1013.1 |
| 20260502170348 | 59 | 77 | 0.0 | 0.0 | 0.00 | 0.02 | 0.02 | 99 | 1013.2 |
| 20260502164336 | 60 | 206 | 0.0 | 0.0 | 0.00 | 0.02 | 0.02 | 99 | 1013.5 |
| 20260502163831 | 59 | 215 | 0.0 | 0.0 | 0.00 | 0.02 | 0.02 | 99 | 1013.8 |
| 20260502163328 | 59 | 215 | 0.0 | 0.0 | 0.00 | 0.02 | 0.02 | 99 | 1013.9 |
| 20260502162826 | 59 | 247 | 0.0 | 0.0 | 0.00 | 0.02 | 0.02 | 99 | 1014.3 |
| 20260502162322 | 59 | 234 | 0.0 | 0.0 | 0.00 | 0.02 | 0.02 | 99 | 1013.9 |
| 20260502161819 | 59 | 230 | 0.0 | 0.0 | 0.00 | 0.02 | 0.02 | 99 | 1014.1 |
| 20260502161315 | 59 | 225 | 0.0 | 0.0 | 0.00 | 0.02 | 0.02 | 99 | 1014.1 |
| 20260502160813 | 59 | 204 | 0.0 | 0.0 | 0.00 | 0.02 | 0.02 | 99 | 1013.8 |
| 20260502160312 | 59 | 233 | 0.0 | 0.0 | 0.00 | 0.02 | 0.02 | 99 | 1014.1 |
| 20260502152247 | 59 | 235 | 0.0 | 0.0 | 0.00 | 0.02 | 0.02 | 99 | 1014.0 |
| 20260502151744 | 59 | 215 | 0.0 | 0.0 | 0.00 | 0.02 | 0.02 | 99 | 1014.1 |
| 20260502151241 | 59 | 226 | 0.0 | 0.0 | 0.00 | 0.02 | 0.02 | 99 | 1014.2 |
| 20260502150739 | 59 | 255 | 0.0 | 0.0 | 0.00 | 0.02 | 0.02 | 99 | 1014.0 |
| 20260502150236 | 58 | 232 | 0.0 | 0.0 | 0.00 | 0.02 | 0.02 | 99 | 1013.8 |
| 20260502130624 | 58 | 223 | 0.0 | 0.0 | 0.00 | 0.02 | 0.02 | 99 | 1013.3 |
| 20260502130122 | 59 | 207 | 0.0 | 0.0 | 0.00 | 0.02 | 0.02 | 99 | 1013.2 |
| 20260502123607 | 58 | 207 | 0.0 | 0.0 | 0.00 | 0.02 | 0.02 | 99 | 1013.5 |
| 20260502123103 | 58 | 219 | 0.0 | 0.0 | 0.00 | 0.02 | 0.02 | 99 | 1013.5 |
| 20260502122600 | 58 | 215 | 0.0 | 0.0 | 0.00 | 0.02 | 0.02 | 99 | 1013.8 |
| 20260502122057 | 58 | 260 | 0.0 | 0.0 | 0.00 | 0.02 | 0.02 | 99 | 1014.0 |
| 20260502121555 | 58 | 239 | 0.0 | 0.0 | 0.00 | 0.02 | 0.02 | 99 | 1014.0 |
| 20260502121052 | 58 | 224 | 0.0 | 0.0 | 0.00 | 0.02 | 0.02 | 99 | 1014.2 |
| 20260502120548 | 58 | 231 | 0.0 | 0.0 | 0.00 | 0.02 | 0.02 | 99 | 1014.0 |
| 20260502115544 | 58 | 242 | 0.0 | 0.0 | 0.00 | 0.02 | 0.02 | 99 | 1013.8 |
| 20260502115039 | 58 | 227 | 0.0 | 0.0 | 0.00 | 0.02 | 0.02 | 99 | 1013.5 |
| 20260502114536 | 58 | 227 | 0.0 | 0.0 | 0.00 | 0.02 | 0.02 | 99 | 1013.0 |
| 20260502114033 | 58 | 227 | 0.0 | 0.0 | 0.00 | 0.02 | 0.02 | 99 | 1012.7 |
| 20260502113531 | 58 | 226 | 0.0 | 0.0 | 0.00 | 0.02 | 0.02 | 99 | 1012.8 |
| 20260502113029 | 58 | 226 | 0.0 | 0.0 | 0.00 | 0.02 | 0.02 | 99 | 1012.7 |
| 20260502112526 | 58 | 226 | 0.0 | 0.0 | 0.00 | 0.02 | 0.02 | 99 | 1012.7 |
| 20260502112024 | 58 | 228 | 0.0 | 0.0 | 0.00 | 0.02 | 0.02 | 99 | 1012.8 |
| 20260502111521 | 58 | 228 | 0.0 | 0.0 | 0.00 | 0.02 | 0.02 | 99 | 1012.7 |
| 20260502111018 | 58 | 228 | 0.0 | 0.0 | 0.00 | 0.02 | 0.02 | 99 | 1012.7 |
| 20260502110515 | 58 | 214 | 0.0 | 0.0 | 0.00 | 0.02 | 0.02 | 99 | 1012.9 |
| 20260502110013 | 58 | 214 | 0.0 | 0.0 | 0.00 | 0.02 | 0.02 | 99 | 1012.8 |
| 20260502105510 | 58 | 217 | 0.0 | 0.0 | 0.00 | 0.02 | 0.02 | 99 | 1012.8 |
| 20260502105008 | 58 | 217 | 0.0 | 0.0 | 0.00 | 0.02 | 0.02 | 99 | 1012.6 |
| 20260502104505 | 58 | 217 | 0.0 | 0.0 | 0.00 | 0.02 | 0.02 | 99 | 1012.4 |
| 20260502104002 | 58 | 211 | 0.0 | 0.0 | 0.00 | 0.02 | 0.02 | 99 | 1012.5 |
| 20260502103459 | 58 | 212 | 0.0 | 0.0 | 0.00 | 0.02 | 0.02 | 99 | 1012.5 |
| 20260502102956 | 58 | 212 | 0.0 | 0.0 | 0.00 | 0.02 | 0.02 | 99 | 1012.5 |
| 20260502102454 | 59 | 211 | 0.0 | 0.0 | 0.00 | 0.02 | 0.02 | 99 | 1012.3 |
| 20260502101950 | 59 | 212 | 0.0 | 0.0 | 0.00 | 0.02 | 0.02 | 99 | 1012.5 |
| 20260502101449 | 59 | 212 | 0.0 | 0.0 | 0.00 | 0.02 | 0.02 | 99 | 1012.5 |
| 20260502100947 | 58 | 212 | 0.0 | 0.0 | 0.00 | 0.02 | 0.02 | 99 | 1012.5 |
| 20260502100445 | 58 | 212 | 0.0 | 0.0 | 0.00 | 0.02 | 0.02 | 99 | 1012.7 |
| 20260502091420 | 59 | 212 | 0.0 | 0.0 | 0.00 | 0.02 | 0.02 | 99 | 1012.9 |
| 20260502090916 | 59 | 211 | 0.0 | 0.0 | 0.00 | 0.02 | 0.02 | 99 | 1013.0 |
| 20260502090414 | 59 | 234 | 0.0 | 0.0 | 0.00 | 0.02 | 0.02 | 99 | 1013.1 |
| 20260502071308 | 61 | 215 | 0.0 | 0.0 | 0.00 | 0.01 | 0.01 | 99 | 1013.1 |
| 20260502070807 | 61 | 216 | 0.0 | 0.0 | 0.00 | 0.01 | 0.01 | 99 | 1013.2 |
| 20260502070304 | 61 | 216 | 0.0 | 0.0 | 0.00 | 0.01 | 0.01 | 99 | 1013.3 |
| 20260502065803 | 61 | 216 | 0.0 | 0.0 | 0.00 | 0.01 | 0.01 | 99 | 1013.2 |
| 20260502065300 | 61 | 217 | 0.0 | 0.0 | 0.00 | 0.01 | 0.01 | 99 | 1013.3 |
| 20260502064758 | 60 | 217 | 0.0 | 0.0 | 0.00 | 0.01 | 0.01 | 99 | 1013.3 |
| 20260502064256 | 61 | 216 | 0.0 | 0.0 | 0.00 | 0.01 | 0.01 | 99 | 1013.7 |
| 20260502063753 | 61 | 216 | 0.0 | 0.0 | 0.00 | 0.01 | 0.01 | 99 | 1013.4 |
| 20260502063251 | 61 | 216 | 0.0 | 0.0 | 0.00 | 0.01 | 0.01 | 99 | 1013.6 |
| 20260502062748 | 61 | 216 | 0.0 | 0.0 | 0.00 | 0.01 | 0.01 | 99 | 1013.6 |
| 20260502062245 | 61 | 216 | 0.0 | 0.0 | 0.00 | 0.01 | 0.01 | 99 | 1013.8 |
| 20260502061744 | 61 | 216 | 0.0 | 0.0 | 0.00 | 0.01 | 0.01 | 99 | 1013.9 |
| 20260502061241 | 61 | 216 | 0.0 | 0.0 | 0.00 | 0.01 | 0.01 | 99 | 1013.9 |
| 20260502060736 | 61 | 217 | 0.0 | 0.0 | 0.00 | 0.01 | 0.01 | 99 | 1013.7 |
| 20260502060232 | 61 | 217 | 0.0 | 0.0 | 0.00 | 0.01 | 0.01 | 99 | 1013.9 |
| 20260502055731 | 61 | 217 | 0.0 | 0.0 | 0.00 | 0.01 | 0.01 | 99 | 1013.9 |
| 20260502055228 | 61 | 217 | 0.0 | 0.0 | 0.00 | 0.01 | 0.01 | 99 | 1013.7 |
| 20260502054727 | 61 | 217 | 0.0 | 0.0 | 0.00 | 0.01 | 0.01 | 99 | 1013.5 |
| 20260502054224 | 61 | 217 | 0.0 | 0.0 | 0.00 | 0.01 | 0.01 | 99 | 1013.6 |
| 20260502053721 | 61 | 217 | 0.0 | 0.0 | 0.00 | 0.01 | 0.01 | 99 | 1013.8 |
| 20260502053218 | 61 | 217 | 0.0 | 0.0 | 0.00 | 0.01 | 0.01 | 99 | 1013.8 |
| 20260502052716 | 61 | 217 | 0.0 | 0.0 | 0.00 | 0.01 | 0.01 | 99 | 1013.9 |
| 20260502052214 | 61 | 216 | 0.0 | 0.0 | 0.00 | 0.01 | 0.01 | 99 | 1014.1 |
| 20260502051712 | 61 | 216 | 0.0 | 0.0 | 0.00 | 0.01 | 0.01 | 99 | 1014.4 |
| 20260502051210 | 61 | 216 | 0.0 | 0.0 | 0.00 | 0.01 | 0.01 | 99 | 1014.2 |
| 20260502050706 | 61 | 216 | 0.0 | 0.0 | 0.00 | 0.01 | 0.01 | 99 | 1014.4 |
| 20260502050202 | 61 | 216 | 0.0 | 0.0 | 0.05 | 0.01 | 0.01 | 99 | 1014.3 |
| 20260502045659 | 61 | 216 | 0.0 | 0.0 | 0.05 | 0.01 | 0.01 | 99 | 1014.6 |
| 20260502045156 | 61 | 216 | 0.0 | 0.0 | 0.00 | 0.00 | 0.00 | 99 | 1014.4 |
| 20260502044653 | 61 | 216 | 0.0 | 0.0 | 0.00 | 0.00 | 0.00 | 99 | 1014.4 |
| 20260502044149 | 61 | 216 | 0.0 | 0.0 | 0.00 | 0.00 | 0.00 | 99 | 1014.4 |
| 20260502043647 | 61 | 216 | 0.0 | 0.0 | 0.00 | 0.00 | 0.00 | 99 | 1014.3 |